Wind_Speed
26 33 44 53 62 59 59 63 59 62 58 58 57 61 62 66 62 64 60 64 67 59 60 61 58 65 63 64 66 68 74 72 71 69 68 67 68 69 72 75 77 76 78
19 27 36 45 49 54 53 53 57 55 52 56 56 59 64 62 61 60 61 58 61 65 70 69 66 64 62 65 67 66 66 66 66 65 66 67 72 75 79 79 76 78 79
16 21 30 37 41 43 49 52 55 53 57 58 58 57 58 65 60 54 60 60 60 59 61 62 59 55 55 57 58 61 62 63 68 67 68 73 76 78 78 77 77 78 77
14 17 20 30 35 36 40 49 49 48 49 46 56 56 62 60 60 60 58 59 58 52 52 54 56 55 57 60 62 64 66 65 68 72 74 77 79 76 76 79 78 76 77
21 19 20 20 23 27 36 43 39 37 44 52 55 57 58 61 60 58 51 56 56 55 58 55 57 61 63 64 65 64 66 70 72 73 76 76 78 78 79 75 76 74 76
18 26 27 22 25 30 28 29 37 39 39 44 48 48 46 46 51 56 59 57 57 59 59 60 63 63 67 70 70 71 74 78 76 74 77 81 83 80 76 73 79 83 84
26 27 32 30 32 36 33 35 37 38 38 41 45 46 48 52 51 52 56 59 60 63 66 69 72 72 72 73 71 70 71 70 73 76 77 70 80 81 81 80 80 82 87
39 36 38 37 36 40 39 39 41 45 47 50 50 51 55 56 54 57 60 62 65 68 72 72 69 69 70 67 66 68 70 72 73 69 76 77 81 86 87 86 88 89 92
24 29 48 45 45 46 41 40 44 46 49 53 55 54 54 59 59 63 66 66 67 66 63 65 65 64 66 65 70 71 72 72 74 77 77 81 85 89 93 98 100 102 100
19 24 29 33 46 50 52 53 51 54 55 53 54 57 57 54 54 52 53 54 55 56 57 61 65 68 70 73 73 72 72 73 76 78 82 85 89 93 96 100 102 104 101
23 22 18 29 32 33 40 45 42 39 40 43 39 42 39 38 41 43 46 51 48 56 63 69 72 72 71 70 70 73 74 74 75 77 79 84 86 91 95 98 101 104 105
23 25 19 16 28 30 35 36 37 31 37 36 37 45 43 38 18 40 41 49 52 55 63 69 69 69 71 74 77 76 76 75 77 77 78 80 83 87 89 92 99 105 108
24 26 24 21 13 21 35 38 39 41 42 43 42 49 37 40 33 39 44 57 58 67 69 71 69 66 67 70 69 70 73 73 74 74 76 80 84 89 93 98 101 105 107
27 25 25 23 17 16 18 26 35 41 46 49 49 50 44 48 48 55 60 67 70 74 71 69 70 68 68 69 69 71 72 73 75 77 80 84 87 91 95 99 103 106 109
31 28 26 28 29 23 20 20 19 22 33 39 42 43 45 54 56 60 65 67 64 67 67 69 69 69 68 69 71 72 73 75 78 81 84 87 90 93 97 101 105 108 108
36 34 32 26 32 37 34 29 30 30 29 29 30 39 46 45 54 59 64 65 66 66 67 70 71 71 72 75 76 77 78 80 82 84 86 89 92 90 89 96 101 101 104
38 36 36 35 34 36 37 37 35 33 35 37 37 38 39 39 43 51 56 61 64 66 68 70 72 72 74 74 76 78 79 82 84 85 85 85 89 94 95 100 101 104 107
43 39 40 40 39 38 39 39 41 41 40 40 40 41 43 47 49 50 50 54 59 64 67 71 73 75 77 79 82 84 84 83 85 82 84 91 95 97 96 96 97 100 103
41 42 43 46 44 44 42 44 48 51 51 50 49 49 49 50 52 51 47 50 57 63 71 68 67 68 71 74 77 78 81 83 86 90 94 95 92 90 96 95 95 96 100
44 44 46 50 48 47 47 50 52 55 54 54 53 54 52 54 57 56 51 59 65 69 69 66 65 64 66 71 75 80 84 87 89 93 96 97 96 101 102 103 101 101 102
50 50 49 52 53 49 50 52 57 58 58 59 59 59 59 62 63 59 60 69 71 73 71 67 66 66 69 72 76 79 82 85 89 91 91 94 96 102 105 106 106 104 104
53 53 54 56 55 56 54 58 60 63 65 64 65 66 65 66 68 68 70 74 72 73 70 69 70 73 74 77 81 85 88 92 93 89 92 98 104 105 107 111 111 111 109
57 58 59 60 62 60 57 60 64 66 69 68 69 71 71 73 72 75 76 76 74 70 70 73 73 75 77 81 87 91 93 96 93 95 100 105 108 111 114 115 114 111 110
60 62 65 62 65 64 62 64 66 70 74 76 74 76 77 77 79 81 83 78 75 72 71 75 79 81 85 89 93 96 92 95 97 102 105 109 113 114 114 114 113 112 112
63 64 67 68 70 67 67 70 71 75 79 81 81 82 83 84 87 89 88 82 80 79 80 83 85 87 89 91 91 90 97 101 105 109 111 112 114 114 114 114 115 115 113
68 69 70 71 72 72 73 74 77 79 83 83 86 86 87 91 93 94 87 83 84 84 85 87 88 90 92 99 103 105 111 112 112 114 113 114 114 113 113 112 113 112 107
Wind_Direction
212 211 220 223 218 221 222 222 224 229 233 233 233 237 241 246 253 251 258 261 266 268 271 275 274 277 280 277 274 277 278 281 280 279 281 285 286 288 289 291 293 291 291
202 207 213 218 221 222 221 229 231 234 235 238 235 242 243 248 254 260 264 269 272 273 273 278 281 279 275 276 276 275 276 276 278 279 281 285 288 290 290 291 291 290 290
209 200 207 214 219 223 225 231 234 234 236 239 242 246 248 248 256 260 261 267 271 273 275 274 275 276 277 276 276 274 276 279 281 283 283 286 286 287 288 288 289 289 290
195 202 214 215 219 223 228 233 238 242 241 246 247 249 253 257 258 262 264 268 271 271 272 274 275 276 274 276 277 278 279 279 281 284 286 286 287 288 287 287 288 287 290
200 216 202 222 225 225 230 235 238 240 244 243 252 255 258 259 263 266 268 269 270 272 274 271 272 275 276 276 281 284 283 284 288 287 288 287 286 288 289 289 289 292 294
223 217 220 216 232 248 250 244 234 233 241 247 251 255 257 261 265 265 264 269 271 270 272 275 274 275 281 282 280 283 286 287 288 285 286 289 289 289 290 293 293 295 295
228 220 223 233 234 235 237 241 245 255 260 261 263 259 263 265 263 266 267 268 272 281 283 280 279 281 283 284 284 282 283 284 286 288 289 291 291 292 293 291 292 297 297
229 239 232 232 235 240 244 243 242 247 253 257 257 261 265 264 271 275 276 276 278 279 281 281 282 282 283 282 283 284 284 286 288 288 289 290 290 292 294 298 298 300 299
264 248 243 244 242 249 248 250 251 254 263 269 269 269 271 274 273 276 277 280 282 279 277 280 282 283 282 283 288 289 289 290 290 288 289 288 289 290 292 295 296 296 296
305 268 256 254 253 256 255 256 257 259 265 269 271 271 271 273 279 283 283 284 284 282 280 276 276 277 280 283 285 286 286 286 286 284 285 285 286 288 289 290 292 294 295
343 322 272 244 252 258 263 263 263 268 271 270 280 276 277 290 295 301 295 288 276 273 275 275 275 281 285 287 288 289 290 289 286 284 284 285 286 287 288 290 291 292 293
344 352 343 279 254 248 261 272 273 265 269 275 278 280 287 293 289 293 298 280 271 268 270 275 282 287 290 291 290 289 288 286 288 287 287 287 287 287 288 289 290 293 294
7 339 343 336 310 268 259 259 266 269 265 264 271 273 274 270 250 247 249 263 264 266 269 278 285 288 283 282 285 286 285 285 285 286 287 287 288 289 290 290 291 293 295
348 357 342 332 333 316 292 270 260 264 267 267 266 269 269 258 257 256 257 262 266 271 277 280 284 285 284 284 284 283 285 286 287 288 288 289 289 290 292 293 293 295 296
337 348 353 332 327 320 323 319 304 285 270 263 261 262 263 261 256 256 259 263 271 277 279 281 285 286 286 287 286 287 287 288 288 288 289 290 292 292 294 295 296 298 299
327 335 345 334 321 324 330 331 323 310 298 293 281 269 265 268 265 267 268 270 277 279 282 282 284 285 286 286 287 289 289 289 289 290 292 294 296 297 299 299 302 303 301
316 325 335 333 322 320 325 326 324 321 310 307 301 296 291 290 291 285 280 281 282 283 284 285 285 287 287 289 288 289 289 289 291 291 294 296 298 301 304 305 304 303 304
308 318 325 326 324 318 317 318 319 317 314 308 305 304 304 304 304 305 295 291 290 289 291 291 288 288 288 288 289 289 290 289 290 292 293 299 303 303 303 305 305 304 302
302 313 319 322 321 319 318 316 315 316 316 316 314 312 306 312 310 308 306 306 304 302 303 300 295 292 289 289 290 288 291 292 294 294 296 299 302 303 304 305 304 305 306
299 307 313 316 317 316 314 314 314 313 314 315 314 312 310 310 311 303 305 305 303 302 301 300 296 297 295 294 292 292 294 297 297 297 298 301 297 302 304 306 306 306 305
299 301 307 310 313 314 312 311 310 311 313 312 312 311 311 311 310 310 306 307 304 304 303 300 298 296 295 296 296 296 298 298 298 299 297 299 301 303 307 306 307 307 308
296 296 303 307 310 312 309 308 307 308 312 310 310 310 312 311 312 311 307 304 302 303 302 301 297 295 295 295 297 299 300 299 294 298 303 298 302 307 307 309 310 311 310
289 295 300 303 306 308 304 302 304 305 307 307 306 309 311 312 313 310 307 305 304 302 299 298 297 295 295 295 297 299 296 294 301 301 299 305 309 310 310 310 310 310 310
289 294 299 301 303 304 303 302 302 304 306 307 307 308 310 312 311 310 308 306 304 301 301 300 298 297 297 297 298 297 296 303 306 308 309 309 310 310 309 310 311 311 311
288 293 297 300 303 302 301 301 304 306 308 307 307 308 310 311 311 309 308 307 304 304 303 301 300 299 299 299 300 305 309 309 309 310 310 309 308 309 310 311 311 311 310
289 293 297 299 300 300 299 301 303 306 307 306 307 308 309 309 310 309 307 304 303 304 302 301 303 304 308 311 311 312 311 310 309 309 308 307 308 310 310 310 310 309 308
Height
10604 10610 10615 10623 10632 10639 10642 10646 10650 10654 10659 10664 10667 10669 10670 10670 10672 10672 10670 10668 10667 10665 10665 10664 10666 10663 10662 10659 10655 10652 10651 10647 10644 10641 10630 10626 10623 10620 10616 10612 10605 10597 10593
10605 10608 10614 10619 10627 10633 10637 10641 10644 10652 10656 10659 10662 10663 10663 10664 10665 10663 10662 10661 10659 10656 10653 10653 10654 10652 10649 10646 10644 10638 10636 10635 10628 10626 10624 10618 10609 10603 10598 10595 10589 10583 10577
10606 10610 10612 10617 10622 10628 10632 10636 10641 10645 10648 10651 10653 10654 10655 10656 10655 10655 10656 10653 10648 10646 10644 10639 10638 10639 10636 10633 10630 10629 10625 10622 10616 10611 10606 10602 10596 10592 10586 10578 10572 10567 10558
10608 10610 10614 10617 10621 10625 10628 10631 10635 10638 10642 10642 10641 10645 10645 10645 10645 10646 10645 10641 10638 10636 10633 10629 10625 10627 10624 10620 10618 10616 10613 10609 10604 10595 10590 10586 10580 10577 10575 10567 10560 10554 10546
10613 10612 10613 10616 10616 10618 10622 10625 10629 10633 10633 10634 10636 10635 10635 10635 10633 10634 10633 10627 10628 10626 10623 10621 10619 10613 10612 10611 10608 10601 10596 10595 10592 10582 10572 10567 10563 10561 10556 10546 10537 10537 10528
10609 10611 10613 10611 10616 10618 10619 10621 10624 10626 10628 10627 10628 10628 10628 10625 10624 10621 10622 10620 10617 10614 10612 10608 10605 10602 10597 10595 10594 10588 10580 10576 10572 10567 10558 10548 10544 10540 10536 10531 10519 10513 10506
10603 10607 10609 10610 10610 10612 10613 10617 10621 10621 10621 10623 10622 10621 10621 10620 10617 10613 10611 10610 10607 10601 10595 10593 10589 10586 10583 10578 10575 10572 10567 10562 10554 10547 10541 10534 10524 10518 10515 10513 10507 10502 10492
10600 10598 10600 10601 10603 10605 10608 10613 10612 10611 10609 10610 10610 10607 10607 10611 10610 10608 10603 10600 10596 10591 10582 10576 10572 10570 10568 10564 10560 10556 10552 10546 10539 10532 10523 10517 10510 10500 10492 10489 10487 10482 10475
10592 10595 10593 10591 10595 10597 10601 10600 10600 10602 10601 10599 10597 10600 10598 10596 10599 10600 10598 10593 10583 10573 10570 10563 10558 10555 10553 10549 10544 10538 10533 10529 10523 10515 10508 10501 10493 10484 10477 10470 10465 10461 10455
10586 10587 10586 10585 10586 10588 10588 10590 10591 10594 10595 10591 10588 10588 10590 10589 10584 10582 10583 10581 10571 10563 10559 10552 10547 10542 10540 10536 10532 10525 10520 10515 10508 10500 10493 10486 10478 10472 10464 10455 10446 10438 10432
10577 10575 10577 10581 10579 10580 10575 10577 10581 10584 10581 10582 10580 10579 10581 10578 10576 10571 10570 10567 10560 10552 10545 10538 10533 10530 10527 10521 10516 10510 10504 10497 10490 10484 10478 10470 10463 10455 10445 10436 10427 10418 10409
10573 10570 10567 10568 10571 10572 10569 10570 10572 10570 10569 10572 10569 10566 10573 10573 10568 10569 10562 10555 10544 10539 10530 10524 10520 10518 10512 10506 10498 10492 10485 10479 10473 10466 10461 10453 10446 10437 10427 10418 10407 10396 10384
10572 10565 10564 10563 10562 10563 10560 10562 10563 10563 10564 10560 10561 10556 10561 10559 10560 10558 10544 10540 10532 10524 10519 10515 10513 10505 10497 10490 10483 10475 10469 10462 10456 10449 10442 10435 10427 10418 10409 10399 10388 10376 10364
10568 10567 10560 10559 10556 10556 10554 10553 10555 10557 10556 10553 10550 10545 10547 10544 10544 10538 10533 10522 10517 10513 10511 10504 10497 10489 10482 10475 10468 10460 10454 10447 10439 10432 10425 10416 10408 10399 10389 10379 10365 10353 10341
10564 10563 10559 10548 10546 10548 10548 10546 10545 10545 10543 10539 10537 10534 10531 10528 10525 10521 10515 10511 10508 10500 10494 10487 10480 10473 10466 10458 10450 10443 10437 10430 10422 10413 10405 10396 10387 10377 10367 10355 10341 10327 10313
10554 10555 10553 10550 10539 10533 10533 10533 10531 10529 10528 10525 10522 10521 10518 10513 10509 10505 10500 10496 10488 10481 10474 10468 10461 10454 10447 10437 10431 10425 10417 10408 10400 10391 10383 10373 10364 10355 10343 10330 10316 10301 10289
10548 10548 10545 10541 10537 10531 10526 10523 10522 10520 10516 10513 10509 10504 10499 10495 10489 10484 10478 10473 10468 10461 10456 10448 10441 10435 10426 10419 10410 10402 10394 10386 10378 10369 10361 10350 10341 10331 10320 10305 10290 10275 10255
10535 10538 10533 10531 10528 10524 10521 10518 10513 10511 10508 10502 10497 10491 10485 10479 10473 10467 10460 10455 10449 10443 10436 10428 10422 10414 10406 10397 10389 10381 10374 10365 10356 10349 10338 10329 10316 10304 10295 10284 10270 10254 10236
10524 10526 10523 10519 10516 10514 10511 10506 10501 10496 10492 10487 10482 10476 10470 10465 10458 10451 10445 10439 10434 10426 10417 10410 10402 10395 10386 10377 10369 10361 10353 10345 10336 10324 10313 10305 10293 10281 10271 10261 10250 10237 10217
10515 10516 10514 10509 10505 10502 10498 10493 10488 10482 10477 10472 10467 10461 10455 10450 10444 10437 10430 10424 10416 10407 10399 10392 10385 10376 10369 10360 10351 10342 10334 10327 10315 10302 10290 10278 10268 10255 10242 10232 10221 10213 10197
10503 10501 10503 10499 10495 10491 10486 10480 10474 10469 10464 10459 10453 10446 10441 10434 10427 10419 10412 10406 10395 10386 10379 10373 10367 10358 10349 10340 10330 10322 10313 10304 10292 10279 10265 10253 10241 10227 10212 10199 10186 10174 10167
10493 10489 10486 10485 10485 10480 10472 10466 10460 10455 10450 10444 10437 10431 10425 10417 10410 10401 10394 10385 10375 10367 10359 10351 10347 10339 10330 10319 10308 10298 10290 10280 10269 10256 10243 10229 10215 10199 10183 10168 10153 10140 10127
10482 10479 10475 10471 10470 10468 10463 10456 10448 10443 10435 10429 10421 10415 10408 10400 10391 10382 10374 10364 10355 10346 10338 10329 10323 10316 10309 10298 10287 10276 10264 10255 10243 10229 10215 10201 10188 10172 10156 10141 10127 10112 10096
10470 10467 10462 10459 10455 10451 10446 10440 10434 10428 10420 10411 10403 10396 10389 10381 10373 10362 10353 10345 10336 10327 10318 10308 10299 10292 10284 10273 10262 10252 10240 10227 10215 10200 10187 10175 10161 10147 10132 10116 10098 10082 10067
10456 10452 10448 10443 10438 10434 10429 10421 10415 10409 10402 10392 10384 10376 10368 10360 10351 10340 10330 10321 10312 10304 10295 10286 10276 10266 10257 10247 10236 10224 10212 10198 10187 10171 10158 10145 10132 10118 10103 10087 10070 10054 10038
10440 10436 10432 10427 10421 10415 10409 10405 10399 10393 10384 10374 10364 10357 10348 10339 10329 10318 10306 10298 10290 10280 10270 10263 10252 10239 10225 10211 10201 10192 10179 10166 10156 10143 10130 10117 10103 10090 10077 10063 10047 10030 10013